Year,Month,Day,Hour,Minute,Value (Times are PST for temperature in C)
2015,11,26,00,00,-3.40
2015,11,26,00,01,-3.40
2015,11,26,00,02,-3.40
2015,11,26,00,03,-3.40
2015,11,26,00,04,-3.40
2015,11,26,00,05,-3.40
2015,11,26,00,06,-3.40
2015,11,26,00,07,-3.40
2015,11,26,00,08,-3.50
2015,11,26,00,09,-3.50
2015,11,26,00,10,-3.50
2015,11,26,00,11,-3.50
2015,11,26,00,12,-3.50
2015,11,26,00,13,-3.50
2015,11,26,00,14,-3.50
2015,11,26,00,15,-3.60
2015,11,26,00,16,-3.60
2015,11,26,00,17,-3.60
2015,11,26,00,18,-3.60
2015,11,26,00,19,-3.60
2015,11,26,00,20,-3.60
2015,11,26,00,21,-3.60
2015,11,26,00,22,-3.60
2015,11,26,00,23,-3.60
2015,11,26,00,24,-3.60
2015,11,26,00,25,-3.60
2015,11,26,00,26,-3.60
2015,11,26,00,27,-3.60
2015,11,26,00,28,-3.60
2015,11,26,00,29,-3.60
2015,11,26,00,30,-3.60
2015,11,26,00,31,-3.60
2015,11,26,00,32,-3.60
2015,11,26,00,33,-3.60
2015,11,26,00,34,-3.60
2015,11,26,00,35,-3.60
2015,11,26,00,36,-3.60
2015,11,26,00,37,-3.60
2015,11,26,00,38,-3.60
2015,11,26,00,39,-3.60
2015,11,26,00,40,-3.60
2015,11,26,00,41,-3.60
2015,11,26,00,42,-3.60
2015,11,26,00,43,-3.60
2015,11,26,00,44,-3.60
2015,11,26,00,45,-3.60
2015,11,26,00,46,-3.60
2015,11,26,00,47,-3.60
2015,11,26,00,48,-3.60
2015,11,26,00,49,-3.60
2015,11,26,00,50,-3.60
2015,11,26,00,51,-3.70
2015,11,26,00,52,-3.70
2015,11,26,00,53,-3.70
2015,11,26,00,54,-3.70
2015,11,26,00,55,-3.70
2015,11,26,00,56,-3.70
2015,11,26,00,57,-3.70
2015,11,26,00,58,-3.70
2015,11,26,00,59,-3.70
2015,11,26,01,00,-3.70
2015,11,26,01,01,-3.70
2015,11,26,01,02,-3.70
2015,11,26,01,03,-3.70
2015,11,26,01,04,-3.80
2015,11,26,01,05,-3.80
2015,11,26,01,06,-3.80
2015,11,26,01,07,-3.80
2015,11,26,01,08,-3.80
2015,11,26,01,09,-3.80
2015,11,26,01,10,-3.80
2015,11,26,01,11,-3.80
2015,11,26,01,12,-3.80
2015,11,26,01,13,-3.80
2015,11,26,01,14,-3.70
2015,11,26,01,15,-3.70
2015,11,26,01,16,-3.70
2015,11,26,01,17,-3.70
2015,11,26,01,18,-3.70
2015,11,26,01,19,-3.70
2015,11,26,01,20,-3.70
2015,11,26,01,21,-3.70
2015,11,26,01,22,-3.80
2015,11,26,01,23,-3.80
2015,11,26,01,24,-3.80
2015,11,26,01,25,-3.80
2015,11,26,01,26,-3.80
2015,11,26,01,27,-3.80
2015,11,26,01,28,-3.80
2015,11,26,01,29,-3.80
2015,11,26,01,30,-3.80
2015,11,26,01,31,-3.80
2015,11,26,01,32,-3.80
2015,11,26,01,33,-3.80
2015,11,26,01,34,-3.80
2015,11,26,01,35,-3.80
2015,11,26,01,36,-3.80
2015,11,26,01,37,-3.80
2015,11,26,01,38,-3.80
2015,11,26,01,39,-3.80
2015,11,26,01,40,-3.80
2015,11,26,01,41,-3.80
2015,11,26,01,42,-3.80
2015,11,26,01,43,-3.80
2015,11,26,01,44,-3.80
2015,11,26,01,45,-3.80
2015,11,26,01,46,-3.90
2015,11,26,01,47,-3.90
2015,11,26,01,48,-3.90
2015,11,26,01,49,-3.90
2015,11,26,01,50,-3.90
2015,11,26,01,51,-3.90
2015,11,26,01,52,-3.90
2015,11,26,01,53,-3.80
2015,11,26,01,54,-3.80
2015,11,26,01,55,-3.80
2015,11,26,01,56,-3.80
2015,11,26,01,57,-3.80
2015,11,26,01,58,-3.80
2015,11,26,01,59,-3.80
2015,11,26,02,00,-3.80
2015,11,26,02,01,-3.80
2015,11,26,02,02,-3.90
2015,11,26,02,03,-3.90
2015,11,26,02,04,-3.90
2015,11,26,02,05,-3.90
2015,11,26,02,06,-3.90
2015,11,26,02,07,-3.90
2015,11,26,02,08,-3.90
2015,11,26,02,09,-3.90
2015,11,26,02,10,-3.90
2015,11,26,02,11,-3.90
2015,11,26,02,12,-3.90
2015,11,26,02,13,-3.90
2015,11,26,02,14,-3.90
2015,11,26,02,15,-3.90
2015,11,26,02,16,-3.80
2015,11,26,02,17,-3.80
2015,11,26,02,18,-3.80
2015,11,26,02,19,-3.80
2015,11,26,02,20,-3.90
2015,11,26,02,21,-3.90
2015,11,26,02,22,-3.90
2015,11,26,02,23,-3.90
2015,11,26,02,24,-3.90
2015,11,26,02,25,-3.90
2015,11,26,02,26,-3.90
2015,11,26,02,27,-3.90
2015,11,26,02,28,-3.90
2015,11,26,02,29,-3.90
2015,11,26,02,30,-3.90
2015,11,26,02,31,-3.90
2015,11,26,02,32,-3.90
2015,11,26,02,33,-3.90
2015,11,26,02,34,-3.90
2015,11,26,02,35,-3.90
2015,11,26,02,36,-3.90
2015,11,26,02,37,-4.00
2015,11,26,02,38,-4.00
2015,11,26,02,39,-4.00
2015,11,26,02,40,-4.00
2015,11,26,02,41,-4.00
2015,11,26,02,42,-4.00
2015,11,26,02,43,-4.10
2015,11,26,02,44,-4.10
2015,11,26,02,45,-4.10
2015,11,26,02,46,-4.10
2015,11,26,02,47,-4.10
2015,11,26,02,48,-4.10
2015,11,26,02,49,-4.10
2015,11,26,02,50,-4.10
2015,11,26,02,51,-4.20
2015,11,26,02,52,-4.20
2015,11,26,02,53,-4.20
2015,11,26,02,54,-4.20
2015,11,26,02,55,-4.20
2015,11,26,02,56,-4.20
2015,11,26,02,57,-4.20
2015,11,26,02,58,-4.20
2015,11,26,02,59,-4.20
2015,11,26,03,00,-4.20
2015,11,26,03,01,-4.20
2015,11,26,03,02,-4.20
2015,11,26,03,03,-4.20
2015,11,26,03,04,-4.10
2015,11,26,03,05,-4.10
2015,11,26,03,06,-4.10
2015,11,26,03,07,-4.10
2015,11,26,03,08,-4.10
2015,11,26,03,09,-4.10
2015,11,26,03,10,-4.10
2015,11,26,03,11,-4.10
2015,11,26,03,12,-4.10
2015,11,26,03,13,-4.10
2015,11,26,03,14,-4.10
2015,11,26,03,15,-4.10
2015,11,26,03,16,-4.10
2015,11,26,03,17,-4.10
2015,11,26,03,18,-4.10
2015,11,26,03,19,-4.10
2015,11,26,03,20,-4.10
2015,11,26,03,21,-4.10
2015,11,26,03,22,-4.10
2015,11,26,03,23,-4.10
2015,11,26,03,24,-4.10
2015,11,26,03,25,-4.10
2015,11,26,03,26,-4.20
2015,11,26,03,27,-4.20
2015,11,26,03,28,-4.20
2015,11,26,03,29,-4.20
2015,11,26,03,30,-4.20
2015,11,26,03,31,-4.20
2015,11,26,03,32,-4.20
2015,11,26,03,33,-4.20
2015,11,26,03,34,-4.20
2015,11,26,03,35,-4.20
2015,11,26,03,36,-4.20
2015,11,26,03,37,-4.20
2015,11,26,03,38,-4.20
2015,11,26,03,39,-4.20
2015,11,26,03,40,-4.30
2015,11,26,03,41,-4.30
2015,11,26,03,42,-4.30
2015,11,26,03,43,-4.30
2015,11,26,03,44,-4.30
2015,11,26,03,45,-4.30
2015,11,26,03,46,-4.30
2015,11,26,03,47,-4.30
2015,11,26,03,48,-4.30
2015,11,26,03,49,-4.30
2015,11,26,03,50,-4.30
2015,11,26,03,51,-4.30
2015,11,26,03,52,-4.30
2015,11,26,03,53,-4.40
2015,11,26,03,54,-4.40
2015,11,26,03,55,-4.40
2015,11,26,03,56,-4.40
2015,11,26,03,57,-4.40
2015,11,26,03,58,-4.40
2015,11,26,03,59,-4.40
2015,11,26,04,00,-4.50
2015,11,26,04,01,-4.50
2015,11,26,04,02,-4.50
2015,11,26,04,03,-4.50
2015,11,26,04,04,-4.50
2015,11,26,04,05,-4.50
2015,11,26,04,06,-4.50
2015,11,26,04,07,-4.50
2015,11,26,04,08,-4.40
2015,11,26,04,09,-4.40
2015,11,26,04,10,-4.40
2015,11,26,04,11,-4.40
2015,11,26,04,12,-4.40
2015,11,26,04,13,-4.40
2015,11,26,04,14,-4.40
2015,11,26,04,15,-4.40
2015,11,26,04,16,-4.40
2015,11,26,04,17,-4.40
2015,11,26,04,18,-4.40
2015,11,26,04,19,-4.40
2015,11,26,04,20,-4.30
2015,11,26,04,21,-4.30
2015,11,26,04,22,-4.30
2015,11,26,04,23,-4.30
2015,11,26,04,24,-4.30
2015,11,26,04,25,-4.30
2015,11,26,04,26,-4.30
2015,11,26,04,27,-4.30
2015,11,26,04,28,-4.30
2015,11,26,04,29,-4.40
2015,11,26,04,30,-4.40
2015,11,26,04,31,-4.40
2015,11,26,04,32,-4.40
2015,11,26,04,33,-4.40
2015,11,26,04,34,-4.40
2015,11,26,04,35,-4.40
2015,11,26,04,36,-4.40
2015,11,26,04,37,-4.40
2015,11,26,04,38,-4.40
2015,11,26,04,39,-4.40
2015,11,26,04,40,-4.40
2015,11,26,04,41,-4.40
2015,11,26,04,42,-4.40
2015,11,26,04,43,-4.40
2015,11,26,04,44,-4.40
2015,11,26,04,45,-4.40
2015,11,26,04,46,-4.40
2015,11,26,04,47,-4.50
2015,11,26,04,48,-4.50
2015,11,26,04,49,-4.50
2015,11,26,04,50,-4.50
2015,11,26,04,51,-4.50
2015,11,26,04,52,-4.50
2015,11,26,04,53,-4.60
2015,11,26,04,54,-4.60
2015,11,26,04,55,-4.60
2015,11,26,04,56,-4.60
2015,11,26,04,57,-4.60
2015,11,26,04,58,-4.60
2015,11,26,04,59,-4.60
2015,11,26,05,00,-4.60
2015,11,26,05,01,-4.60
2015,11,26,05,02,-4.60
2015,11,26,05,03,-4.60
2015,11,26,05,04,-4.60
2015,11,26,05,05,-4.60
2015,11,26,05,06,-4.60
2015,11,26,05,07,-4.60
2015,11,26,05,08,-4.50
2015,11,26,05,09,-4.50
2015,11,26,05,10,-4.50
2015,11,26,05,11,-4.50
2015,11,26,05,12,-4.50
2015,11,26,05,13,-4.50
2015,11,26,05,14,-4.50
2015,11,26,05,15,-4.50
2015,11,26,05,16,-4.50
2015,11,26,05,17,-4.50
2015,11,26,05,18,-4.50
2015,11,26,05,19,-4.50
2015,11,26,05,20,-4.50
2015,11,26,05,21,-4.50
2015,11,26,05,22,-4.50
2015,11,26,05,23,-4.60
2015,11,26,05,24,-4.60
2015,11,26,05,25,-4.60
2015,11,26,05,26,-4.60
2015,11,26,05,27,-4.60
2015,11,26,05,28,-4.60
2015,11,26,05,29,-4.60
2015,11,26,05,30,-4.60
2015,11,26,05,31,-4.70
2015,11,26,05,32,-4.70
2015,11,26,05,33,-4.70
2015,11,26,05,34,-4.70
2015,11,26,05,35,-4.70
2015,11,26,05,36,-4.70
2015,11,26,05,37,-4.70
2015,11,26,05,38,-4.70
2015,11,26,05,39,-4.70
2015,11,26,05,40,-4.70
2015,11,26,05,41,-4.70
2015,11,26,05,42,-4.70
2015,11,26,05,43,-4.60
2015,11,26,05,44,-4.60
2015,11,26,05,45,-4.60
2015,11,26,05,46,-4.60
2015,11,26,05,47,-4.60
2015,11,26,05,48,-4.60
2015,11,26,05,49,-4.60
2015,11,26,05,50,-4.60
2015,11,26,05,51,-4.60
2015,11,26,05,52,-4.60
2015,11,26,05,53,-4.60
2015,11,26,05,54,-4.60
2015,11,26,05,55,-4.60
2015,11,26,05,56,-4.60
2015,11,26,05,57,-4.60
2015,11,26,05,58,-4.60
2015,11,26,05,59,-4.60
2015,11,26,06,00,-4.60
2015,11,26,06,01,-4.60
2015,11,26,06,02,-4.60
2015,11,26,06,03,-4.70
2015,11,26,06,04,-4.70
2015,11,26,06,05,-4.70
2015,11,26,06,06,-4.70
2015,11,26,06,07,-4.70
2015,11,26,06,08,-4.70
2015,11,26,06,09,-4.70
2015,11,26,06,10,-4.70
2015,11,26,06,11,-4.70
2015,11,26,06,12,-4.70
2015,11,26,06,13,-4.70
2015,11,26,06,14,-4.70
2015,11,26,06,15,-4.70
2015,11,26,06,16,-4.70
2015,11,26,06,17,-4.70
2015,11,26,06,18,-4.70
2015,11,26,06,19,-4.70
2015,11,26,06,20,-4.70
2015,11,26,06,21,-4.70
2015,11,26,06,22,-4.70
2015,11,26,06,23,-4.70
2015,11,26,06,24,-4.70
2015,11,26,06,25,-4.70
2015,11,26,06,26,-4.80
2015,11,26,06,27,-4.80
2015,11,26,06,28,-4.80
2015,11,26,06,29,-4.80
2015,11,26,06,30,-4.80
2015,11,26,06,31,-4.80
2015,11,26,06,32,-4.70
2015,11,26,06,33,-4.70
2015,11,26,06,34,-4.70
2015,11,26,06,35,-4.70
2015,11,26,06,36,-4.70
2015,11,26,06,37,-4.70
2015,11,26,06,38,-4.70
2015,11,26,06,39,-4.70
2015,11,26,06,40,-4.70
2015,11,26,06,41,-4.70
2015,11,26,06,42,-4.70
2015,11,26,06,43,-4.70
2015,11,26,06,44,-4.70
2015,11,26,06,45,-4.70
2015,11,26,06,46,-4.70
2015,11,26,06,47,-4.70
2015,11,26,06,48,-4.70
2015,11,26,06,49,-4.70
2015,11,26,06,50,-4.70
2015,11,26,06,51,-4.70
2015,11,26,06,52,-4.70
2015,11,26,06,53,-4.70
2015,11,26,06,54,-4.70
2015,11,26,06,55,-4.70
2015,11,26,06,56,-4.70
2015,11,26,06,57,-4.70
2015,11,26,06,58,-4.70
2015,11,26,06,59,-4.70
2015,11,26,07,00,-4.70
2015,11,26,07,01,-4.70
2015,11,26,07,02,-4.70
2015,11,26,07,03,-4.70
2015,11,26,07,04,-4.70
2015,11,26,07,05,-4.80
2015,11,26,07,06,-4.80
2015,11,26,07,07,-4.80
2015,11,26,07,08,-4.80
2015,11,26,07,09,-4.80
2015,11,26,07,10,-4.80
2015,11,26,07,11,-4.80
2015,11,26,07,12,-4.80
2015,11,26,07,13,-4.70
2015,11,26,07,14,-4.70
2015,11,26,07,15,-4.70
2015,11,26,07,16,-4.70
2015,11,26,07,17,-4.70
2015,11,26,07,18,-4.70
2015,11,26,07,19,-4.70
2015,11,26,07,20,-4.70
2015,11,26,07,21,-4.70
2015,11,26,07,22,-4.70
2015,11,26,07,23,-4.70
2015,11,26,07,24,-4.70
2015,11,26,07,25,-4.70
2015,11,26,07,26,-4.70
2015,11,26,07,27,-4.70
2015,11,26,07,28,-4.70
2015,11,26,07,29,-4.70
2015,11,26,07,30,-4.70
2015,11,26,07,31,-4.70
2015,11,26,07,32,-4.70
2015,11,26,07,33,-4.70
2015,11,26,07,34,-4.70
2015,11,26,07,35,-4.70
2015,11,26,07,36,-4.70
2015,11,26,07,37,-4.70
2015,11,26,07,38,-4.70
2015,11,26,07,39,-4.70
2015,11,26,07,40,-4.70
2015,11,26,07,41,-4.70
2015,11,26,07,42,-4.80
2015,11,26,07,43,-4.80
2015,11,26,07,44,-4.80
2015,11,26,07,45,-4.80
2015,11,26,07,46,-4.80
2015,11,26,07,47,-4.80
2015,11,26,07,48,-4.80
2015,11,26,07,49,-4.80
2015,11,26,07,50,-4.80
2015,11,26,07,51,-4.80
2015,11,26,07,52,-4.80
2015,11,26,07,53,-4.80
2015,11,26,07,54,-4.80
2015,11,26,07,55,-4.80
2015,11,26,07,56,-4.80
2015,11,26,07,57,-4.80
2015,11,26,07,58,-4.80
2015,11,26,07,59,-4.80
2015,11,26,08,00,-4.80
2015,11,26,08,01,-4.80
2015,11,26,08,02,-4.80
2015,11,26,08,03,-4.80
2015,11,26,08,04,-4.70
2015,11,26,08,05,-4.70
2015,11,26,08,06,-4.70
2015,11,26,08,07,-4.70
2015,11,26,08,08,-4.70
2015,11,26,08,09,-4.70
2015,11,26,08,10,-4.60
2015,11,26,08,11,-4.60
2015,11,26,08,12,-4.60
2015,11,26,08,13,-4.60
2015,11,26,08,14,-4.60
2015,11,26,08,15,-4.60
2015,11,26,08,16,-4.60
2015,11,26,08,17,-4.60
2015,11,26,08,18,-4.60
2015,11,26,08,19,-4.60
2015,11,26,08,20,-4.60
2015,11,26,08,21,-4.60
2015,11,26,08,22,-4.60
2015,11,26,08,23,-4.60
2015,11,26,08,24,-4.60
2015,11,26,08,25,-4.50
2015,11,26,08,26,-4.50
2015,11,26,08,27,-4.50
2015,11,26,08,28,-4.50
2015,11,26,08,29,-4.50
2015,11,26,08,30,-4.50
2015,11,26,08,31,-4.50
2015,11,26,08,32,-4.50
2015,11,26,08,33,-4.40
2015,11,26,08,34,-4.40
2015,11,26,08,35,-4.40
2015,11,26,08,36,-4.30
2015,11,26,08,37,-4.30
2015,11,26,08,38,-4.30
2015,11,26,08,39,-4.30
2015,11,26,08,40,-4.20
2015,11,26,08,41,-4.20
2015,11,26,08,42,-4.20
2015,11,26,08,43,-4.20
2015,11,26,08,44,-4.10
2015,11,26,08,45,-4.10
2015,11,26,08,46,-4.10
2015,11,26,08,47,-4.00
2015,11,26,08,48,-4.00
2015,11,26,08,49,-3.90
2015,11,26,08,50,-3.80
2015,11,26,08,51,-3.70
2015,11,26,08,52,-3.70
2015,11,26,08,53,-3.60
2015,11,26,08,54,-3.50
2015,11,26,08,55,-3.50
2015,11,26,08,56,-3.40
2015,11,26,08,57,-3.30
2015,11,26,08,58,-3.30
2015,11,26,08,59,-3.20
2015,11,26,09,00,-3.20
2015,11,26,09,01,-3.20
2015,11,26,09,02,-3.20
2015,11,26,09,03,-3.10
2015,11,26,09,04,-3.10
2015,11,26,09,05,-3.00
2015,11,26,09,06,-3.00
2015,11,26,09,07,-2.90
2015,11,26,09,08,-2.80
2015,11,26,09,09,-2.70
2015,11,26,09,10,-2.70
2015,11,26,09,11,-2.60
2015,11,26,09,12,-2.50
2015,11,26,09,13,-2.50
2015,11,26,09,14,-2.40
2015,11,26,09,15,-2.30
2015,11,26,09,16,-2.20
2015,11,26,09,17,-2.10
2015,11,26,09,18,-2.00
2015,11,26,09,19,-1.90
2015,11,26,09,20,-1.80
2015,11,26,09,21,-1.80
2015,11,26,09,22,-1.70
2015,11,26,09,23,-1.70
2015,11,26,09,24,-1.60
2015,11,26,09,25,-1.60
2015,11,26,09,26,-1.50
2015,11,26,09,27,-1.50
2015,11,26,09,28,-1.40
2015,11,26,09,29,-1.40
2015,11,26,09,30,-1.40
2015,11,26,09,31,-1.40
2015,11,26,09,32,-1.30
2015,11,26,09,33,-1.30
2015,11,26,09,34,-1.30
2015,11,26,09,35,-1.20
2015,11,26,09,36,-1.20
2015,11,26,09,37,-1.20
2015,11,26,09,38,-1.10
2015,11,26,09,39,-1.00
2015,11,26,09,40,-1.00
2015,11,26,09,41,-0.90
2015,11,26,09,42,-0.90
2015,11,26,09,43,-0.90
2015,11,26,09,44,-0.90
2015,11,26,09,45,-0.90
2015,11,26,09,46,-1.00
2015,11,26,09,47,-1.00
2015,11,26,09,48,-1.00
2015,11,26,09,49,-1.00
2015,11,26,09,50,-0.90
2015,11,26,09,51,-0.80
2015,11,26,09,52,-0.70
2015,11,26,09,53,-0.60
2015,11,26,09,54,-0.50
2015,11,26,09,55,-0.40
2015,11,26,09,56,-0.30
2015,11,26,09,57,-0.20
2015,11,26,09,58,-0.20
2015,11,26,09,59,-0.10
2015,11,26,10,00,0.00
2015,11,26,10,01,0.10
2015,11,26,10,02,0.10
2015,11,26,10,03,0.20
2015,11,26,10,04,0.30
2015,11,26,10,05,0.30
2015,11,26,10,06,0.30
2015,11,26,10,07,0.30
2015,11,26,10,08,0.40
2015,11,26,10,09,0.50
2015,11,26,10,10,0.60
2015,11,26,10,11,0.70
2015,11,26,10,12,0.80
2015,11,26,10,13,0.80
2015,11,26,10,14,0.80
2015,11,26,10,15,0.90
2015,11,26,10,16,0.90
2015,11,26,10,17,1.00
2015,11,26,10,18,1.00
2015,11,26,10,19,1.10
2015,11,26,10,20,1.10
2015,11,26,10,21,1.20
2015,11,26,10,22,1.30
2015,11,26,10,23,1.30
2015,11,26,10,24,1.30
2015,11,26,10,25,1.30
2015,11,26,10,26,1.40
2015,11,26,10,27,1.50
2015,11,26,10,28,1.60
2015,11,26,10,29,1.60
2015,11,26,10,30,1.70
2015,11,26,10,31,1.80
2015,11,26,10,32,1.80
2015,11,26,10,33,1.90
2015,11,26,10,34,1.90
2015,11,26,10,35,1.90
2015,11,26,10,36,2.00
2015,11,26,10,37,2.00
2015,11,26,10,38,2.10
2015,11,26,10,39,2.10
2015,11,26,10,40,2.20
2015,11,26,10,41,2.20
2015,11,26,10,42,2.30
2015,11,26,10,43,2.40
2015,11,26,10,44,2.50
2015,11,26,10,45,2.60
2015,11,26,10,46,2.70
2015,11,26,10,47,2.70
2015,11,26,10,48,2.80
2015,11,26,10,49,2.80
2015,11,26,10,50,2.80
2015,11,26,10,51,2.80
2015,11,26,10,52,2.80
2015,11,26,10,53,2.80
2015,11,26,10,54,2.80
2015,11,26,10,55,2.80
2015,11,26,10,56,2.90
2015,11,26,10,57,2.90
2015,11,26,10,58,3.00
2015,11,26,10,59,3.10
2015,11,26,11,00,3.10
2015,11,26,11,01,3.20
2015,11,26,11,02,3.20
2015,11,26,11,03,3.20
2015,11,26,11,04,3.30
2015,11,26,11,05,3.30
2015,11,26,11,06,3.40
2015,11,26,11,07,3.50
2015,11,26,11,08,3.50
2015,11,26,11,09,3.60
2015,11,26,11,10,3.70
2015,11,26,11,11,3.70
2015,11,26,11,12,3.80
2015,11,26,11,13,3.80
2015,11,26,11,14,3.90
2015,11,26,11,15,3.90
2015,11,26,11,16,4.00
2015,11,26,11,17,4.00
2015,11,26,11,18,4.10
2015,11,26,11,19,4.10
2015,11,26,11,20,4.10
2015,11,26,11,21,4.20
2015,11,26,11,22,4.20
2015,11,26,11,23,4.20
2015,11,26,11,24,4.30
2015,11,26,11,25,4.30
2015,11,26,11,26,4.30
2015,11,26,11,27,4.30
2015,11,26,11,28,4.40
2015,11,26,11,29,4.40
2015,11,26,11,30,4.50
2015,11,26,11,31,4.60
2015,11,26,11,32,4.60
2015,11,26,11,33,4.70
2015,11,26,11,34,4.70
2015,11,26,11,35,4.70
2015,11,26,11,36,4.70
2015,11,26,11,37,4.80
2015,11,26,11,38,4.80
2015,11,26,11,39,4.80
2015,11,26,11,40,4.80
2015,11,26,11,41,4.90
2015,11,26,11,42,4.90
2015,11,26,11,43,4.90
2015,11,26,11,44,4.90
2015,11,26,11,45,4.90
2015,11,26,11,46,4.80
2015,11,26,11,47,4.80
2015,11,26,11,48,4.80
2015,11,26,11,49,4.80
2015,11,26,11,50,4.80
2015,11,26,11,51,4.80
2015,11,26,11,52,4.80
2015,11,26,11,53,4.80
2015,11,26,11,54,4.90
2015,11,26,11,55,4.90
2015,11,26,11,56,5.00
2015,11,26,11,57,5.00
2015,11,26,11,58,5.10
2015,11,26,11,59,5.10
2015,11,26,12,00,5.20
2015,11,26,12,01,5.20
2015,11,26,12,02,5.20
2015,11,26,12,03,5.20
2015,11,26,12,04,5.30
2015,11,26,12,05,5.30
2015,11,26,12,06,5.30
2015,11,26,12,07,5.30
2015,11,26,12,08,5.30
2015,11,26,12,09,5.30
2015,11,26,12,10,5.30
2015,11,26,12,11,5.30
2015,11,26,12,12,5.30
2015,11,26,12,13,5.30
2015,11,26,12,14,5.40
2015,11,26,12,15,5.40
2015,11,26,12,16,5.50
2015,11,26,12,17,5.50
2015,11,26,12,18,5.60
2015,11,26,12,19,5.60
2015,11,26,12,20,5.60
2015,11,26,12,21,5.70
2015,11,26,12,22,5.70
2015,11,26,12,23,5.80
2015,11,26,12,24,5.90
2015,11,26,12,25,6.00
2015,11,26,12,26,6.10
2015,11,26,12,27,6.10
2015,11,26,12,28,6.10
2015,11,26,12,29,6.10
2015,11,26,12,30,6.10
2015,11,26,12,31,6.10
2015,11,26,12,32,6.10
2015,11,26,12,33,6.10
2015,11,26,12,34,6.00
2015,11,26,12,35,6.00
2015,11,26,12,36,6.00
2015,11,26,12,37,6.00
2015,11,26,12,38,6.00
2015,11,26,12,39,6.10
2015,11,26,12,40,6.10
2015,11,26,12,41,6.10
2015,11,26,12,42,6.10
2015,11,26,12,43,6.10
2015,11,26,12,44,6.10
2015,11,26,12,45,6.10
2015,11,26,12,46,6.10
2015,11,26,12,47,6.10
2015,11,26,12,48,6.10
2015,11,26,12,49,6.10
2015,11,26,12,50,6.10
2015,11,26,12,51,6.10
2015,11,26,12,52,6.10
2015,11,26,12,53,6.20
2015,11,26,12,54,6.20
2015,11,26,12,55,6.30
2015,11,26,12,56,6.30
2015,11,26,12,57,6.30
2015,11,26,12,58,6.40
2015,11,26,12,59,6.40
2015,11,26,13,00,6.40
2015,11,26,13,01,6.50
2015,11,26,13,02,6.50
2015,11,26,13,03,6.50
2015,11,26,13,04,6.60
2015,11,26,13,05,6.60
2015,11,26,13,06,6.60
2015,11,26,13,07,6.60
2015,11,26,13,08,6.60
2015,11,26,13,09,6.70
2015,11,26,13,10,6.70
2015,11,26,13,11,6.70
2015,11,26,13,12,6.70
2015,11,26,13,13,6.70
2015,11,26,13,14,6.80
2015,11,26,13,15,6.80
2015,11,26,13,16,6.90
2015,11,26,13,17,6.90
2015,11,26,13,18,6.90
2015,11,26,13,19,7.00
2015,11,26,13,20,7.00
2015,11,26,13,21,7.10
2015,11,26,13,22,7.10
2015,11,26,13,23,7.20
2015,11,26,13,24,7.20
2015,11,26,13,25,7.20
2015,11,26,13,26,7.20
2015,11,26,13,27,7.30
2015,11,26,13,28,7.30
2015,11,26,13,29,7.40
2015,11,26,13,30,7.40
2015,11,26,13,31,7.50
2015,11,26,13,32,7.50
2015,11,26,13,33,7.50
2015,11,26,13,34,7.50
2015,11,26,13,35,7.50
2015,11,26,13,36,7.40
2015,11,26,13,37,7.40
2015,11,26,13,38,7.40
2015,11,26,13,39,7.40
2015,11,26,13,40,7.50
2015,11,26,13,41,7.50
2015,11,26,13,42,7.60
2015,11,26,13,43,7.70
2015,11,26,13,44,7.70
2015,11,26,13,45,7.70
2015,11,26,13,46,7.70
2015,11,26,13,47,7.80
2015,11,26,13,48,7.80
2015,11,26,13,49,7.80
2015,11,26,13,50,7.80
2015,11,26,13,51,7.80
2015,11,26,13,52,7.80
2015,11,26,13,53,7.80
2015,11,26,13,54,7.80
2015,11,26,13,55,7.70
2015,11,26,13,56,7.70
2015,11,26,13,57,7.70
2015,11,26,13,58,7.70
2015,11,26,13,59,7.60
2015,11,26,14,00,7.50
2015,11,26,14,01,7.40
2015,11,26,14,02,7.30
2015,11,26,14,03,7.20
2015,11,26,14,04,7.20
2015,11,26,14,05,7.10
2015,11,26,14,06,7.10
2015,11,26,14,07,7.00
2015,11,26,14,08,7.00
2015,11,26,14,09,7.00
2015,11,26,14,10,7.00
2015,11,26,14,11,7.00
2015,11,26,14,12,7.00
2015,11,26,14,13,7.00
2015,11,26,14,14,7.00
2015,11,26,14,15,7.00
2015,11,26,14,16,7.10
2015,11,26,14,17,7.10
2015,11,26,14,18,7.10
2015,11,26,14,19,7.10
2015,11,26,14,20,7.10
2015,11,26,14,21,7.20
2015,11,26,14,22,7.20
2015,11,26,14,23,7.20
2015,11,26,14,24,7.20
2015,11,26,14,25,7.20
2015,11,26,14,26,7.20
2015,11,26,14,27,7.20
2015,11,26,14,28,7.30
2015,11,26,14,29,7.30
2015,11,26,14,30,7.30
2015,11,26,14,31,7.30
2015,11,26,14,32,7.40
2015,11,26,14,33,7.40
2015,11,26,14,34,7.40
2015,11,26,14,35,7.40
2015,11,26,14,36,7.40
2015,11,26,14,37,7.40
2015,11,26,14,38,7.40
2015,11,26,14,39,7.40
2015,11,26,14,40,7.40
2015,11,26,14,41,7.30
2015,11,26,14,42,7.30
2015,11,26,14,43,7.20
2015,11,26,14,44,7.20
2015,11,26,14,45,7.20
2015,11,26,14,46,7.20
2015,11,26,14,47,7.20
2015,11,26,14,48,7.10
2015,11,26,14,49,7.10
2015,11,26,14,50,7.10
2015,11,26,14,51,7.10
2015,11,26,14,52,7.10
2015,11,26,14,53,7.10
2015,11,26,14,54,7.00
2015,11,26,14,55,7.00
2015,11,26,14,56,7.00
2015,11,26,14,57,6.90
2015,11,26,14,58,6.90
2015,11,26,14,59,6.90
2015,11,26,15,00,6.90
2015,11,26,15,01,6.80
2015,11,26,15,02,6.80
2015,11,26,15,03,6.80
2015,11,26,15,04,6.80
2015,11,26,15,05,6.80
2015,11,26,15,06,6.70
2015,11,26,15,07,6.70
2015,11,26,15,08,6.70
2015,11,26,15,09,6.60
2015,11,26,15,10,6.60
2015,11,26,15,11,6.50
2015,11,26,15,12,6.50
2015,11,26,15,13,6.40
2015,11,26,15,14,6.30
2015,11,26,15,15,6.20
2015,11,26,15,16,6.20
2015,11,26,15,17,6.10
2015,11,26,15,18,6.10
2015,11,26,15,19,6.00
2015,11,26,15,20,5.90
2015,11,26,15,21,5.90
2015,11,26,15,22,5.80
2015,11,26,15,23,5.80
2015,11,26,15,24,5.70
2015,11,26,15,25,5.60
2015,11,26,15,26,5.60
2015,11,26,15,27,5.50
2015,11,26,15,28,5.50
2015,11,26,15,29,5.40
2015,11,26,15,30,5.40
2015,11,26,15,31,5.30
2015,11,26,15,32,5.30
2015,11,26,15,33,5.30
2015,11,26,15,34,5.30
2015,11,26,15,35,5.20
2015,11,26,15,36,5.10
2015,11,26,15,37,5.10
2015,11,26,15,38,5.00
2015,11,26,15,39,4.90
2015,11,26,15,40,4.90
2015,11,26,15,41,4.80
2015,11,26,15,42,4.80
2015,11,26,15,43,4.70
2015,11,26,15,44,4.60
2015,11,26,15,45,4.50
2015,11,26,15,46,4.40
2015,11,26,15,47,4.40
2015,11,26,15,48,4.30
2015,11,26,15,49,4.20
2015,11,26,15,50,4.00
2015,11,26,15,51,3.90
2015,11,26,15,52,3.80
2015,11,26,15,53,3.70
2015,11,26,15,54,3.60
2015,11,26,15,55,3.50
2015,11,26,15,56,3.40
2015,11,26,15,57,3.30
2015,11,26,15,58,3.30
2015,11,26,15,59,3.20
2015,11,26,16,00,3.10
2015,11,26,16,01,3.00
2015,11,26,16,02,3.00
2015,11,26,16,03,2.90
2015,11,26,16,04,2.80
2015,11,26,16,05,2.80
2015,11,26,16,06,2.70
2015,11,26,16,07,2.60
2015,11,26,16,08,2.60
2015,11,26,16,09,2.50
2015,11,26,16,10,2.50
2015,11,26,16,11,2.40
2015,11,26,16,12,2.40
2015,11,26,16,13,2.30
2015,11,26,16,14,2.20
2015,11,26,16,15,2.20
2015,11,26,16,16,2.10
2015,11,26,16,17,2.10
2015,11,26,16,18,2.00
2015,11,26,16,19,2.00
2015,11,26,16,20,1.90
2015,11,26,16,21,1.80
2015,11,26,16,22,1.80
2015,11,26,16,23,1.70
2015,11,26,16,24,1.60
2015,11,26,16,25,1.60
2015,11,26,16,26,1.40
2015,11,26,16,27,1.30
2015,11,26,16,28,1.30
2015,11,26,16,29,1.30
2015,11,26,16,30,1.30
2015,11,26,16,31,1.20
2015,11,26,16,32,1.20
2015,11,26,16,33,1.10
2015,11,26,16,34,1.00
2015,11,26,16,35,1.00
2015,11,26,16,36,0.90
2015,11,26,16,37,0.90
2015,11,26,16,38,0.80
2015,11,26,16,39,0.80
2015,11,26,16,40,0.80
2015,11,26,16,41,0.70
2015,11,26,16,42,0.70
2015,11,26,16,43,0.70
2015,11,26,16,44,0.70
2015,11,26,16,45,0.70
2015,11,26,16,46,0.60
2015,11,26,16,47,0.60
2015,11,26,16,48,0.50
2015,11,26,16,49,0.50
2015,11,26,16,50,0.40
2015,11,26,16,51,0.40
2015,11,26,16,52,0.30
2015,11,26,16,53,0.30
2015,11,26,16,54,0.20
2015,11,26,16,55,0.20
2015,11,26,16,56,0.10
2015,11,26,16,57,0.10
2015,11,26,16,58,0.10
2015,11,26,16,59,0.00
2015,11,26,17,00,0.00
2015,11,26,17,01,-0.10
2015,11,26,17,02,-0.10
2015,11,26,17,03,-0.10
2015,11,26,17,04,-0.20
2015,11,26,17,05,-0.20
2015,11,26,17,06,-0.20
2015,11,26,17,07,-0.20
2015,11,26,17,08,-0.30
2015,11,26,17,09,-0.30
2015,11,26,17,10,-0.30
2015,11,26,17,11,-0.30
2015,11,26,17,12,-0.30
2015,11,26,17,13,-0.40
2015,11,26,17,14,-0.40
2015,11,26,17,15,-0.40
2015,11,26,17,16,-0.50
2015,11,26,17,17,-0.50
2015,11,26,17,18,-0.50
2015,11,26,17,19,-0.50
2015,11,26,17,20,-0.60
2015,11,26,17,21,-0.60
2015,11,26,17,22,-0.60
2015,11,26,17,23,-0.60
2015,11,26,17,24,-0.60
2015,11,26,17,25,-0.60
2015,11,26,17,26,-0.70
2015,11,26,17,27,-0.70
2015,11,26,17,28,-0.70
2015,11,26,17,29,-0.70
2015,11,26,17,30,-0.70
2015,11,26,17,31,-0.70
2015,11,26,17,32,-0.70
2015,11,26,17,33,-0.70
2015,11,26,17,34,-0.70
2015,11,26,17,35,-0.80
2015,11,26,17,36,-0.80
2015,11,26,17,37,-0.80